Miscellaneous Local Product
Issued by NWS North Platte, NE

Home | Current Version | Previous Version | Text Only | Print | Product List | Glossary On
Versions: 1 2 3 4 5 6 7 8 9 10 11 12 13 14 15 16 17 18 19 20 21 22 23 24 25 26 27 28 29 30 31 32 33 34 35 36 37 38 39 40 41 42 43 44 45 46 47 48 49 50
000
AXUS43 KLBF 222010
MISLBF


WESTERN AND NORTH CENTRAL NEBRASKA HOURLY WEATHER ROUNDUP
NATIONAL WEATHER SERVICE NORTH PLATTE NE
300 PM CDT TUE JUL 22 2014

***STATIONS NOT REPORTING VARIABLES SUCH AS SKY/WEATHER OR
PRESSURE ARE PROVIDED BY THE NEBRASKA DEPARTMENT OF
ROADS...RAWS...AND APRS NETWORKS...AND ARE NOT UNDER
NATIONAL WEATHER SERVICE QUALITY CONTROL***

...OBSERVATIONS IN AND NEAR THE EASTERN PANHANDLE OF NEBRASKA...

CITY           SKY/WX    TMP DP  RH WIND       PRES   REMARKS
PINE RIDGE     SUNNY     85  62  46 E7        30.24S
CHADRON        SUNNY     90  59  35 E10       30.21F
ALLIANCE       SUNNY     91  51  25 SE8       30.25S
SIDNEY         SUNNY     92  52  25 MISG      30.27F
WHITECLAY        N/A     86  59  40 SE8         N/A
RUSHVILLE        N/A     92  54  27 SE13        N/A  HX  90
GORDON           N/A     90  60  36 E6          N/A
CRESCENT LAKE    N/A     92  55  28 SE6G13      N/A  HX  90
LISCO            N/A     94  49  21 E9          N/A  HX  90
BIG SPRINGS      N/A     86  64  48 E6          N/A
$$

...OBSERVATIONS IN NORTH CENTRAL NEBRASKA...

CITY           SKY/WX    TMP DP  RH WIND       PRES   REMARKS
VALENTINE      SUNNY     84  62  47 VRB6      30.23R
THEDFORD       SUNNY     89  60  36 E9G16     30.21S
AINSWORTH      MOSUNNY   81  61  49 N6        30.22S
O`NEILL        MOSUNNY   78  64  61 NE17      30.16F
ORD            SUNNY     89  65  44 N7        30.15R HX  91
BROKEN BOW     SUNNY     90  62  39 NE12      30.18R HX  90
BROWNLEE         N/A     91  64  40 E12         N/A  HX  92
SPRINGVIEW       N/A     82  63  51 N5          N/A
DUNNING          N/A     87  62  43 SE10        N/A
ROSE             N/A     89  68  49 N7          N/A  HX  92
NEWPORT          N/A     81  66  59 NE9         N/A
SARGENT          N/A     87  65  48 E3G12       N/A
COMSTOCK         N/A     92  69  46 E7          N/A  HX  96
CHAMBERS         N/A     86  63  45 N6          N/A
$$

...OBSERVATIONS IN SOUTHWEST NEBRASKA AND FAR NORTHEAST COLORADO...

CITY           SKY/WX    TMP DP  RH WIND       PRES   REMARKS
WRAY             N/A     95  55  26 E9G20     30.21F HX  93
HOLYOKE        FAIR      95  59  30 E7        30.24S HX  94
IMPERIAL       SUNNY     93  59  31 E13       30.19S HX  92
OGALLALA       SUNNY     88  58  35 E9        30.21F
NORTH PLATTE   SUNNY     91  61  36 E9        30.17S HX  91
MCCOOK         SUNNY     93  66  40 VRB7      30.14R HX  96
LEXINGTON      SUNNY     91  60  35 E15       30.15S HX  90
PAXTON           N/A     88  63  43 NE5         N/A
SUTHERLAND       N/A     93  62  35 E8          N/A  HX  93
BRADY            N/A     89  61  38 NW3G12      N/A
GOTHENBURG       N/A     88  56  33 E8          N/A
CALLAWAY         N/A     88  75  64 E7          N/A  HX  97
$$

...NORTH PLATTE AREA...

CITY           SKY/WX    TMP DP  RH WIND       PRES   REMARKS
AIRPORT        SUNNY     91  61  36 E9        30.17S HX  91
$$

...SOME WEATHER OBSERVATIONS FROM AROUND THE REGION...

CITY           SKY/WX    TMP DP  RH WIND       PRES   REMARKS
DENVER         MOSUNNY   90  44  20 VRB3      30.32S
LARAMIE        SUNNY     86  30  13 SE9G17    30.43S
CHEYENNE       SUNNY     84  52  33 VRB6G16   30.38S
SCOTTSBLUFF    SUNNY     90  56  31 E9        30.25S
RAPID CITY     SUNNY     85  63  47 SE12G17   30.23R
PIERRE         SUNNY     86  57  37 E9        30.17R
WINNER         FAIR      84  63  49 MISG      30.20R
SIOUX FALLS    MOSUNNY   81  63  54 NE12G20   30.14R
OMAHA          MOSUNNY   91  68  46 N8        30.04S HX  95
GRAND ISLAND   SUNNY     88  67  49 NE10      30.14R HX  91
KANSAS CITY    PTSUNNY   93  76  57 SW12      30.02S HX 105
WICHITA        PTSUNNY   96  73  47 S10       30.05F HX 105
HAYS           SUNNY     95  64  36 S5        30.09S HX  97
LIBERAL        SUNNY     93  66  40 S9        30.15S HX  96
GOODLAND       SUNNY     94  59  31 MISG      30.18S HX  93
$$



USA.gov is the U.S. government's official web portal to all federal, state and local government web resources and services.